Terug naar catalogus

STARLINK-38159

ActiefCommunicatieSSO
NORAD 100186·PAYLOAD·🇺🇸 United States

Gelanceerd Aug 1, 2026 vanaf Vandenberg Space Force Base

Loading…

Volgende Passages (komende 24 uur)

TLE

VersSource: Space-Track

Epoch: Sep 14, 2026, 11:55 UTC

1 A0186U 26175H   26257.49702377  .00200384  00000-0  13102-2 0  9993
2 A0186  97.2847  99.6733 0001352 152.5651 207.5686 15.75240938  8238

Volg STARLINK-38159 in realtime met AllMySat

Download on the App Store